Вернуться в каталог

SL-12 R/B(2)

АктивенGEO
NORAD 17065·ROCKET BODY·🇷🇺 Russia

Запущен Oct 25, 1986 с Baikonur Cosmodrome

Loading…

TLE

СвежийSource: Space-Track

Эпоха: Sep 14, 2026, 05:39 UTC

1 17065U 86082F   26257.23575238 -.00000060  00000-0  00000-0 0  9997
2 17065  11.4864 325.7608 0026558 174.3986 213.1751  0.97597686116555

Отслеживайте SL-12 R/B(2) в реальном времени с AllMySat

Download on the App Store